Regional Weather Roundup
Issued by NWS State College, PA

Home | Current Version | Previous Version | Text Only | Print | Product List | Glossary On
Versions: 1 2 3 4 5 6 7 8 9 10 11 12 13 14 15 16 17 18 19 20 21 22 23 24 25 26 27 28 29 30 31 32 33 34 35 36 37 38 39 40 41 42 43 44 45 46 47 48 49 50
000
ASUS41 KCTP 011610
RWRCTP

REGIONAL WEATHER ROUNDUP
NATIONAL WEATHER SERVICE STATE COLLEGE PA
1200 PM EDT WED OCT 01 2014

Note: "fair" indicates few or no clouds below 12,000 feet with no
significant weather and/or obstructions to visibility.

* = STATION THAT DOES NOT REPORT PRECIPITATION /E.G. RAIN...SNOW...ETC/
    THUNDER OR FOG.

PAZ002>004-007>009-013>016-020>023-029>032-011700-
WESTERN PENNSYLVANIA

CITY           SKY/WX    TMP DP  RH WIND       PRES   REMARKS
ERIE           PTSUNNY   66  57  72 VRB5      30.05F
MEADVILLE      MOSUNNY   62  55  77 E7        30.06S
FRANKLIN*      CLOUDY    57  54  88 NE5       30.08S
NEW CASTLE       N/A     58  56  93 CALM      30.08R
BEAVER COUNTY  CLOUDY    59  55  88 CALM      30.06S
BUTLER*        CLOUDY    55  54  94 CALM      30.09R
PITTSBURGH INT CLOUDY    59  55  87 CALM      30.06R
PITTSBURGH     CLOUDY    59  55  87 NE3       30.05S FOG
INDIANA*       CLOUDY    68  55  64 VRB7      30.08S
LATROBE        MOSUNNY   68  61  77 SW8       30.05S
WASHINGTON CO* CLOUDY    59  54  82 CALM      30.07S
$$

PAZ004>006-010>012-017>019-024>028-033>037-041-042-045-046-049>053-011700-
CENTRAL PENNSYLVANIA

CITY           SKY/WX    TMP DP  RH WIND       PRES   REMARKS
BRADFORD       CLOUDY    59  54  83 SE10      30.09S
DUBOIS         CLOUDY    60  56  86 SE6       30.07S
CLEARFIELD     CLOUDY    61  57  87 NE7       30.09S
JOHNSTOWN      CLOUDY    61  55  81 SE7       30.07S
ALTOONA        CLOUDY    61  58  90 E5        30.08S
STATE COLLEGE  CLOUDY    61  57  88 CALM      30.09R FOG
WILLIAMSPORT   CLOUDY    66  58  75 SE3       30.06F
SELINSGROVE    CLOUDY    63  57  81 CALM      30.09S
FT INDIANTOWN  PTSUNNY   67  66  98 VRB2      30.07F
CAPITAL CITY   CLOUDY    65  59  81 CALM      30.07S
HARRISBURG     CLOUDY    65  59  81 CALM      30.06S FOG
YORK           CLOUDY    64  59  83 E5        30.07S HAZE
$$

PAZ038>040-043-044-047-048-054-055-060>062-067>071-011700-
EASTERN PENNSYLVANIA

CITY           SKY/WX    TMP DP  RH WIND       PRES   REMARKS
SCRANTON       CLOUDY    68  55  63 NW3       30.07S
MOUNT POCONO   CLOUDY    62  53  72 NE8       30.09S
ALLENTOWN      MOSUNNY   72  54  53 NE7       30.06F
QUAKERTOWN*    PTSUNNY   70  55  60 N5        30.07S
READING        PTSUNNY   68  56  65 NE6       30.06S
LANCASTER      CLOUDY    65  58  78 NE5       30.06F
COATESVILLE    MOSUNNY   64  57  77 N6        30.07S
POTTSTOWN      PTSUNNY   68  57  68 N3        30.07S
BLUE BELL      PTSUNNY   70  57  64 NE6       30.05S
DOYLESTOWN     CLOUDY    68  56  65 NE8       30.05F
WILLOW GROVE   NOT AVBL
NORTH PHILA    CLOUDY    70  55  59 NE8       30.06S
PHILADELPHIA   PTSUNNY   71  57  61 E10       30.05S
$$



USA.gov is the U.S. government's official web portal to all federal, state and local government web resources and services.